STARLINK-32173

Last updated on Fri Sep 20 2024 00:02:03 GMT+0000 (Coordinated Universal Time)

1 60586U 24150D 24263.58334491 .00095419 00000+0 23694-2 0 9994 2 60586 53.1591 279.3047 0001276 56.5331 215.8931 15.39572440 6018
UTC large
Height (km)
Speed (km/s)
/
Latitude / Longitude
Inclination (degrees)
Orbital Period (minutes)
Azimuth
Elevation
Range (km)
Doppler Factor

Next 0 passes for location: London (51.5072 / 0.1276)

Sorry there are no passes over London.